Theta_e
343 343 343 343 343 344 343 342 344 343 343 342 338 339 341 341 342 341 341 343 345 347 345 345 346 345 343 341 341 341 341 340 340 337 336 336 336 334 333 332 331 331 330 329 329 329 327 327 327 326 324 325 325 323 323 323 322 321 321 322 321 320 320 320 320 320 320 320 320 320 319 319 319 319 318 319 317 318 318 318 318 318 318 318 318
342 342 342 343 343 345 344 343 342 342 339 338 340 341 341 339 340 341 342 345 346 346 345 344 344 343 342 341 340 339 338 335 336 335 336 336 334 332 330 329 329 329 328 328 328 327 327 327 326 326 325 325 325 324 323 323 322 320 321 321 321 320 319 319 319 319 320 319 320 320 319 319 319 318 318 318 317 318 318 318 318 318 318 319 318
343 343 342 342 343 343 341 342 340 339 338 339 346 344 342 340 342 343 346 345 344 346 345 343 342 341 341 339 337 337 335 335 333 332 332 334 334 333 331 329 328 327 327 326 327 326 325 326 326 325 325 325 324 324 324 323 321 320 320 320 320 320 320 319 319 318 319 318 318 319 320 319 318 318 317 317 317 317 317 317 317 317 318 318 317
345 344 343 342 342 341 341 342 339 340 340 343 346 347 345 346 346 349 348 346 345 345 345 343 342 341 338 335 336 335 333 333 331 330 331 331 330 331 330 328 327 326 326 326 326 326 325 325 325 325 325 324 323 323 323 322 321 320 320 319 319 319 319 319 318 318 318 318 317 317 318 319 319 318 317 317 316 316 316 317 316 317 317 316 316
345 344 343 343 342 345 343 343 342 341 343 349 349 349 350 350 350 350 348 346 346 345 343 343 342 340 337 335 335 332 332 332 331 330 328 329 328 329 330 330 328 326 325 324 324 324 324 324 324 324 324 324 324 323 323 322 321 320 319 319 319 319 318 318 318 318 317 317 317 317 316 317 319 318 317 317 316 316 316 316 316 316 316 316 316
345 347 348 347 347 346 344 341 342 345 347 349 347 350 349 349 347 348 345 344 344 344 342 341 338 337 336 335 334 334 333 331 329 328 326 325 325 327 328 326 327 327 325 324 324 323 323 323 323 323 323 323 323 323 322 322 321 320 320 319 318 318 318 318 317 317 317 317 317 317 316 315 317 318 317 316 315 316 316 315 317 316 315 315 316
348 348 349 347 347 347 346 346 347 348 347 348 349 350 349 347 346 344 345 344 343 343 341 340 337 335 334 333 332 331 332 329 327 326 324 324 324 323 326 328 328 325 324 322 322 322 322 322 321 320 320 321 321 321 321 321 320 319 318 318 318 317 317 317 317 317 317 318 317 317 316 316 315 317 317 316 315 316 315 315 316 315 315 314 315
348 348 348 348 347 347 349 350 349 350 349 350 350 348 348 347 347 346 343 342 341 341 341 339 336 333 333 333 331 331 329 326 325 323 322 323 321 322 323 324 326 326 324 322 322 321 319 319 318 318 319 319 320 320 320 320 320 319 318 317 317 317 317 317 317 317 317 318 316 316 316 316 315 317 317 315 315 316 314 315 316 314 314 314 314
348 349 348 348 347 347 351 351 350 349 349 352 350 349 348 346 347 347 346 343 340 337 337 338 334 333 332 332 331 330 329 325 323 323 321 321 319 319 321 322 324 322 325 324 321 319 318 317 317 316 316 317 317 318 318 319 319 318 317 317 317 316 317 317 317 317 317 318 317 316 315 315 315 316 317 315 315 315 314 315 314 313 314 314 313
348 348 349 348 348 347 349 350 349 350 350 351 349 349 349 348 346 347 345 343 339 337 333 335 334 333 330 328 330 327 326 324 322 321 319 317 318 318 319 319 318 320 323 324 323 319 317 317 315 315 315 315 315 315 315 315 317 318 318 317 316 316 316 316 317 317 317 317 317 315 315 315 315 315 316 315 316 315 314 314 314 313 313 313 313
346 348 349 347 346 346 346 346 348 347 348 349 349 348 347 347 346 345 346 345 340 336 334 333 332 329 326 326 327 326 325 322 322 320 317 317 316 316 316 319 319 318 320 321 321 320 318 316 316 316 315 313 314 314 315 316 316 315 316 317 316 316 316 315 316 316 317 317 317 315 314 314 315 314 315 315 315 315 315 314 314 314 313 313 313
347 348 349 347 346 345 346 346 346 346 346 347 346 345 345 346 345 344 343 341 339 337 336 332 331 329 325 326 326 325 322 321 320 318 318 317 316 316 316 315 317 317 318 317 317 317 318 319 319 315 314 313 314 314 313 314 316 314 315 315 315 315 315 315 315 315 316 317 316 315 314 314 315 314 315 315 315 315 314 314 314 314 314 313 313
347 347 347 346 346 345 345 345 346 346 347 347 347 346 346 346 344 344 343 339 336 337 335 332 326 325 325 325 324 324 323 320 318 317 316 316 316 315 315 316 316 316 316 316 314 315 316 316 316 316 315 313 312 311 310 312 313 314 314 314 314 313 314 314 314 314 315 316 316 316 314 314 314 314 315 315 315 315 314 314 314 314 314 314 314
348 346 348 346 346 344 345 345 345 346 347 348 346 343 344 344 344 342 343 338 334 335 334 331 327 326 320 318 318 320 320 320 316 315 316 316 316 317 316 315 313 315 315 314 314 312 312 314 315 314 314 315 315 315 315 315 315 313 313 313 312 312 312 313 313 313 314 315 316 316 314 314 315 314 315 315 314 314 314 313 314 314 314 314 313
347 346 347 346 346 345 344 345 345 346 346 346 344 343 342 342 342 339 338 339 335 335 332 335 332 330 326 320 315 315 317 316 318 316 316 317 316 314 314 313 312 313 314 314 313 313 312 313 313 314 315 315 314 315 316 317 313 314 312 311 311 311 312 312 312 313 314 314 315 315 315 314 315 314 314 313 313 312 313 313 314 314 313 313 313
345 345 346 345 346 345 345 345 344 347 346 345 345 342 342 341 340 340 339 334 333 332 334 336 335 328 319 320 320 319 315 314 315 317 317 315 314 313 313 312 312 312 313 312 312 313 314 313 312 314 315 315 316 314 315 315 311 312 311 310 310 311 312 311 311 312 313 314 315 315 314 314 314 313 313 312 312 312 313 313 313 313 313 312 312
345 345 345 345 346 346 346 346 346 347 347 345 344 342 342 341 340 340 339 336 332 333 334 338 336 331 327 322 318 317 320 320 317 316 316 314 314 314 314 312 312 311 310 311 312 313 313 312 314 315 316 315 315 315 316 315 316 316 316 311 311 311 312 311 311 312 313 315 315 315 314 314 313 313 312 311 311 312 312 313 312 312 312 312 312
344 345 344 345 346 346 347 347 347 346 346 346 346 344 342 341 340 340 339 339 336 332 332 336 334 332 335 331 330 322 321 319 318 314 317 317 316 314 314 313 313 312 311 311 311 311 313 313 315 315 315 316 315 314 315 315 314 317 313 315 311 312 312 312 311 312 313 314 315 314 314 313 313 312 312 311 311 311 311 312 312 312 312 312 311
345 345 345 345 346 346 348 348 347 347 346 348 346 344 342 341 341 340 339 339 337 331 332 331 330 331 332 334 332 331 327 320 317 319 312 315 316 314 314 314 313 312 310 310 311 311 313 313 313 312 314 316 314 314 315 315 309 309 310 311 312 311 312 311 311 313 312 313 314 314 313 313 312 312 312 311 310 311 311 311 312 312 311 311 311
344 344 345 345 346 346 349 349 347 348 346 346 346 346 344 343 342 341 340 339 337 334 334 328 327 328 331 330 329 328 329 327 327 322 318 314 312 316 316 316 315 315 313 311 310 311 313 313 312 312 313 312 314 314 314 313 314 314 317 311 312 312 311 311 310 311 313 313 313 313 313 312 312 312 313 311 310 310 310 311 311 311 312 311 310
344 345 346 345 345 347 348 348 348 347 345 346 347 346 344 342 340 339 338 337 336 336 332 330 330 329 328 328 328 326 326 327 326 325 320 317 316 312 313 316 317 315 315 314 312 312 312 312 312 312 314 314 314 314 313 314 314 314 315 311 311 311 311 311 310 310 310 312 312 312 312 312 312 312 313 311 310 310 310 311 311 311 310 309 309
344 345 346 346 346 348 348 348 348 348 345 346 346 346 345 342 341 341 340 337 337 334 333 332 333 332 329 329 327 326 325 324 323 323 323 322 317 314 315 312 311 313 316 313 313 311 312 314 314 311 312 314 314 313 313 313 315 313 314 309 310 311 311 311 310 309 309 311 312 312 311 311 312 312 312 311 310 310 310 310 311 309 309 308 308
343 345 346 347 348 348 348 347 347 346 345 346 346 345 344 343 342 341 340 338 335 333 332 334 333 331 331 329 327 326 325 323 322 322 322 320 318 318 319 314 313 312 314 315 312 311 311 313 313 312 314 314 314 313 314 314 313 309 304 307 308 309 310 310 310 310 309 309 310 312 313 311 311 312 311 310 309 310 310 310 309 308 308 307 308
342 342 344 346 346 346 347 347 346 346 345 346 346 345 345 344 343 341 340 339 338 335 334 333 333 332 332 331 329 330 329 326 324 325 323 321 320 319 318 316 314 313 314 315 312 311 311 311 311 312 313 313 313 313 313 312 312 307 310 308 307 308 309 309 309 310 311 308 309 310 313 312 311 310 310 309 309 310 310 310 309 309 308 308 308
340 340 342 344 344 345 345 346 345 346 345 345 345 343 345 343 341 341 341 338 336 336 333 334 333 332 331 332 330 330 329 328 328 326 326 324 323 319 319 318 312 312 312 311 310 311 311 310 311 311 311 312 311 311 312 313 314 309 305 312 304 307 307 307 308 309 311 309 308 309 311 311 312 311 311 310 311 312 311 311 310 310 310 311 311
339 341 342 343 344 346 346 346 346 345 345 344 343 341 345 340 340 340 339 339 338 337 336 335 335 335 334 331 331 330 330 330 329 327 326 324 320 319 319 316 315 312 311 309 310 308 309 310 311 311 311 311 310 312 312 311 313 306 305 309 309 305 306 307 307 308 308 308 309 308 308 308 309 310 309 310 311 311 311 311 310 310 311 311 310
340 342 344 343 343 345 346 345 346 346 344 343 340 343 342 339 339 340 339 339 338 336 335 335 333 333 334 332 331 331 331 329 329 328 327 325 323 322 321 316 313 313 309 309 309 307 309 310 311 310 311 312 312 312 311 312 310 305 306 311 313 307 309 304 306 307 308 308 307 308 307 307 307 307 308 309 310 311 310 310 310 310 311 310 310
345 343 343 343 343 344 345 344 345 345 342 341 341 341 340 339 338 338 337 337 337 337 335 335 334 334 334 334 332 330 331 329 329 328 327 326 324 325 323 319 313 310 310 308 308 307 310 308 309 310 310 310 311 312 311 306 310 308 306 311 311 311 305 306 305 306 307 307 307 307 306 307 307 307 308 309 310 310 310 310 310 311 311 310 310
345 345 344 344 344 345 345 345 344 342 342 340 341 340 339 338 336 337 337 337 337 335 334 333 334 335 334 334 332 331 330 331 330 329 328 326 325 326 324 319 318 311 309 307 308 307 308 309 307 308 309 309 310 310 308 310 308 307 311 311 310 312 310 305 305 305 305 304 306 305 305 306 306 307 308 309 310 310 310 310 310 310 310 309 309
345 344 344 343 345 344 345 344 343 342 341 340 339 339 338 336 336 335 335 336 334 334 334 333 333 334 334 333 333 330 330 330 329 331 329 327 325 325 322 321 319 314 313 310 309 311 309 310 310 307 307 308 309 309 310 310 308 306 309 310 309 312 305 305 306 304 304 304 304 303 304 305 305 307 308 308 309 310 310 309 309 309 307 307 308
345 345 344 343 345 344 344 343 342 341 340 339 339 338 337 336 335 334 335 335 332 331 332 332 332 332 331 331 331 329 329 329 329 329 329 326 323 320 320 320 319 319 316 314 309 312 313 310 310 310 306 307 307 309 307 308 307 306 308 310 310 309 305 308 306 305 304 303 303 303 305 305 304 305 306 307 308 308 308 309 307 306 306 306 305
345 345 344 343 343 342 342 341 340 340 339 339 337 336 336 335 334 334 333 331 330 329 329 329 329 329 329 328 329 328 328 326 326 324 321 320 321 318 318 318 318 319 317 314 311 311 313 313 311 308 306 307 307 307 308 308 304 308 308 309 309 307 307 310 306 306 304 303 302 302 303 303 303 304 305 306 307 307 307 306 304 304 305 305 304
345 344 343 342 342 341 341 340 339 339 338 337 336 335 333 332 333 332 332 329 328 328 328 328 327 327 327 326 326 325 325 322 320 320 319 318 320 319 318 317 316 317 316 314 310 311 313 315 312 307 307 308 306 307 307 308 308 308 307 310 310 310 309 309 309 304 303 302 302 301 301 301 301 304 305 305 304 303 304 302 301 302 303 304 302
345 343 342 342 341 341 340 339 339 338 337 336 335 334 332 331 331 331 330 328 327 327 327 325 325 324 325 324 322 322 322 318 319 318 317 316 316 315 315 315 314 315 317 313 310 311 310 311 309 309 308 309 306 307 307 308 308 307 306 307 308 309 307 309 308 309 301 303 301 301 301 301 300 300 301 301 300 299 300 300 299 299 301 302 299
344 343 342 342 341 340 340 339 338 338 337 335 335 333 332 331 330 330 329 328 326 325 324 323 322 323 322 322 321 321 320 319 319 318 318 317 315 313 314 314 314 315 314 314 312 312 311 308 310 308 309 308 308 306 305 307 307 306 304 307 307 307 308 309 308 310 300 301 301 301 301 300 301 300 299 300 300 299 299 299 299 299 299 299 299
342 343 343 341 341 340 339 338 338 337 336 335 333 333 331 330 329 328 327 326 325 325 324 322 320 321 321 320 320 320 319 318 317 316 316 316 314 313 314 314 315 315 316 315 315 313 311 309 308 306 308 308 306 307 307 306 306 307 306 307 307 307 308 308 309 309 304 302 302 302 302 302 301 301 300 299 300 300 299 299 299 299 299 299 300
342 342 341 341 340 339 338 337 337 336 334 333 332 332 331 330 329 328 327 325 325 324 323 321 320 320 320 319 319 318 317 316 317 315 314 314 311 313 312 312 312 315 315 315 313 312 311 308 308 309 310 308 308 307 305 304 307 307 308 308 307 306 307 308 308 308 305 301 302 302 303 302 302 302 301 300 300 300 299 299 299 300 300 300 300
341 341 340 339 338 337 337 337 337 336 334 332 330 329 329 328 329 328 326 324 323 322 320 320 319 319 319 318 319 317 316 316 316 314 314 313 312 312 312 311 312 314 314 312 312 311 309 308 310 307 309 307 306 306 306 305 305 305 305 307 308 309 309 309 309 308 309 309 310 311 307 306 303 301 302 302 301 299 299 300 300 301 301 301 300
340 339 339 338 337 337 337 337 336 336 334 333 331 329 328 327 327 326 324 323 321 320 319 319 319 318 319 318 318 317 316 316 315 314 314 313 312 312 313 313 312 312 309 309 310 310 309 310 309 309 307 307 307 304 305 306 306 305 305 305 305 308 308 308 307 308 309 309 307 303 304 305 305 306 304 302 301 301 300 301 302 302 302 301 299
339 339 337 337 337 337 337 336 337 335 335 332 330 328 327 327 327 325 323 322 320 319 320 318 318 318 318 318 318 317 316 316 315 315 313 311 311 312 313 313 311 310 309 309 309 308 308 308 306 305 305 305 305 307 309 306 305 305 306 305 302 304 306 308 308 307 308 308 308 308 307 306 306 306 301 301 301 301 302 303 303 304 303 301 299
339 339 338 337 335 335 335 334 334 333 332 331 330 327 326 326 326 324 323 321 320 318 318 317 318 318 317 318 317 316 316 316 313 312 312 312 313 312 312 310 308 310 309 309 308 306 306 306 305 307 304 303 304 304 304 304 304 305 309 307 304 305 307 306 307 309 308 306 308 308 308 310 308 308 310 310 310 308 307 305 305 303 302 300 298
338 338 337 336 335 333 331 330 330 330 330 330 322 314 316 325 325 323 322 321 319 318 317 316 317 316 316 317 317 316 314 312 309 304 302 305 308 310 308 309 309 309 308 307 305 305 306 304 304 304 302 303 303 306 306 307 308 308 305 306 305 306 306 305 307 309 309 308 306 306 307 310 309 308 309 308 309 309 309 308 306 304 303 299 298
337 337 337 335 333 331 330 329 329 328 329 327 307 303 304 308 321 323 322 320 319 318 316 316 315 315 316 315 316 314 313 310 309 300 300 300 300 301 303 305 309 312 310 307 306 307 304 305 305 304 302 303 304 307 306 307 308 306 306 307 305 305 304 302 301 306 311 309 306 305 307 310 310 307 307 307 308 308 308 308 302 301 300 299 298
336 337 335 334 333 332 330 330 329 328 329 312 301 301 301 302 310 323 322 320 319 317 316 315 315 315 315 314 315 314 312 311 311 308 304 298 296 297 297 298 299 296 295 309 310 306 306 305 304 304 304 304 305 307 306 306 306 306 306 306 306 305 304 303 303 302 307 310 306 305 305 309 310 308 306 307 308 309 307 304 301 300 299 299 298
337 336 334 334 331 329 328 328 328 327 329 301 300 299 300 300 302 313 321 321 318 317 316 315 314 314 314 313 313 313 311 311 309 308 308 306 299 295 297 296 295 295 293 292 293 312 310 306 305 304 304 305 305 306 307 308 308 306 307 305 307 307 306 304 304 305 307 309 306 304 303 306 308 307 306 308 308 308 308 303 300 300 299 299 298
334 334 333 332 329 327 327 327 326 326 326 302 298 298 299 299 299 304 322 320 318 316 315 315 315 314 314 313 313 312 312 311 310 310 309 308 306 306 306 307 307 304 293 291 293 290 300 309 306 305 306 307 306 308 309 309 307 304 304 305 307 306 306 305 308 307 308 309 306 305 302 304 307 306 305 308 308 308 308 303 298 299 299 299 298
333 332 332 331 329 328 327 327 326 326 326 298 298 297 297 297 298 301 321 319 317 317 316 315 315 315 314 314 314 312 314 311 310 309 310 308 308 307 307 307 307 308 306 306 306 306 306 305 308 308 308 309 309 309 311 309 308 308 308 308 308 307 306 307 306 308 308 311 310 307 301 303 307 304 306 307 308 307 308 303 300 299 299 299 299
334 333 331 331 328 327 326 324 325 324 323 296 297 296 296 297 297 314 319 318 316 315 315 315 315 315 315 314 313 313 315 311 306 300 304 309 309 309 307 308 308 308 308 309 300 300 310 312 309 312 313 313 304 315 315 312 309 309 308 307 306 306 304 303 303 306 305 309 312 306 303 302 306 304 305 307 307 306 307 309 302 301 299 299 298
332 332 331 329 328 325 323 323 324 324 319 299 296 296 295 295 300 315 318 317 315 315 314 314 314 314 314 313 312 313 313 312 303 296 297 303 310 309 308 308 308 308 307 310 295 289 290 292 291 291 290 291 293 292 292 292 303 307 307 304 304 305 303 302 303 303 304 307 307 309 306 301 305 305 304 306 306 305 306 307 308 302 300 299 298
331 331 330 328 326 325 323 323 325 325 320 303 295 295 295 294 304 315 317 315 314 314 314 314 314 313 313 311 313 316 314 312 296 295 295 304 310 308 308 307 307 307 307 308 306 305 289 290 290 289 290 290 289 288 290 291 291 297 303 300 304 304 304 304 301 303 304 305 306 310 305 302 304 305 303 305 306 307 307 307 307 306 302 301 300
332 332 330 327 324 324 325 325 318 324 323 306 294 295 294 294 304 315 316 314 313 314 312 312 313 313 313 312 310 309 310 308 293 294 294 301 308 309 308 308 306 306 306 307 305 303 304 305 307 309 305 298 303 305 305 292 292 297 305 304 304 303 302 303 303 302 301 304 309 310 303 303 303 304 304 302 301 304 307 306 306 307 307 306 306
Wind_Speed
8 8 7 7 7 7 6 6 6 6 6 5 5 6 5 5 5 5 5 5 5 5 5 5 4 5 5 6 4 5 5 5 5 5 6 6 7 9 12 12 11 11 11 10 10 11 10 10 11 11 10 9 10 10 10 10 10 10 10 11 11 11 11 11 11 11 11 11 11 11 10 11 12 12 12 13 12 12 14 14 14 15 16 17 17
8 7 7 7 7 7 6 6 6 5 6 6 5 6 6 6 6 6 6 5 5 5 5 5 5 5 5 5 6 6 5 5 4 5 5 6 8 9 12 11 11 10 10 10 10 10 10 10 10 10 10 9 9 9 9 9 10 10 9 9 10 10 10 10 10 10 10 10 10 10 10 10 11 11 12 12 12 13 14 13 13 16 16 16 17
8 7 7 7 7 7 6 6 6 6 6 6 6 6 6 5 6 5 5 6 5 5 5 6 5 6 5 6 6 5 5 5 4 5 5 5 5 7 10 12 11 10 10 10 10 10 9 9 9 10 10 9 9 9 9 9 9 9 8 9 9 9 9 8 9 9 9 9 9 9 11 11 10 10 11 11 12 13 13 14 14 15 15 16 16
8 7 7 7 7 7 6 6 6 6 6 6 6 6 6 5 5 6 5 4 5 5 5 5 5 5 6 7 6 6 5 4 4 5 5 6 7 7 7 9 10 9 9 8 9 9 9 9 9 9 8 8 9 9 9 9 9 8 8 8 8 8 8 7 7 7 7 8 8 8 9 11 10 9 11 10 12 12 12 13 14 14 15 16 16
7 8 8 7 7 7 6 6 6 6 6 7 8 6 5 5 5 5 6 5 5 6 6 5 5 6 6 6 6 5 5 5 5 5 5 5 5 6 7 7 8 9 9 7 8 9 8 8 8 8 8 8 8 8 8 8 8 7 7 7 6 6 6 6 5 4 5 6 7 9 10 10 10 8 10 11 12 12 12 13 14 15 15 17 17
8 8 8 7 8 7 7 7 6 7 7 7 7 6 6 6 6 6 5 6 6 6 6 6 5 6 5 6 5 5 5 5 4 4 4 5 5 4 6 7 7 7 8 9 8 8 8 7 7 7 7 7 7 7 7 7 6 6 6 5 5 5 4 4 4 5 5 4 6 8 10 10 10 9 9 11 12 11 12 14 15 14 15 16 16
9 9 8 8 8 8 8 7 7 8 7 7 6 6 6 6 6 7 7 6 7 6 7 6 7 7 6 5 5 5 4 5 4 4 5 5 4 4 3 4 5 6 6 7 7 7 6 6 6 5 5 6 6 6 6 6 6 5 5 4 3 3 3 4 4 4 7 4 5 6 7 10 10 10 9 10 11 12 13 14 13 14 14 15 15
10 9 8 8 8 8 7 7 8 7 6 6 6 6 6 6 7 7 8 7 7 7 6 6 6 7 6 5 5 4 4 4 4 4 5 4 5 4 4 4 4 5 4 6 6 7 6 6 5 5 5 5 5 5 5 5 5 5 4 4 3 3 3 3 4 5 6 5 4 6 6 8 10 10 9 10 11 11 12 12 13 13 13 14 15
10 10 8 8 7 8 7 8 7 6 6 6 6 6 6 6 6 7 7 7 7 8 6 4 5 5 6 6 5 4 4 4 4 4 4 4 5 5 4 4 4 4 3 4 5 6 6 5 5 5 5 5 5 5 5 4 4 4 4 4 4 4 5 5 5 5 6 6 4 6 6 7 9 10 9 11 11 10 12 12 12 11 13 13 14
11 9 8 8 7 7 7 8 7 7 6 6 6 6 6 7 7 7 7 7 6 8 8 5 3 4 5 5 5 4 4 4 4 4 4 5 4 4 4 4 5 5 4 4 5 6 6 6 6 5 5 4 4 5 5 6 5 4 4 4 5 5 6 7 6 6 5 7 4 5 6 7 7 10 8 9 11 10 11 12 11 11 12 13 14
11 10 9 8 7 7 7 8 7 6 7 7 7 7 7 7 8 7 6 6 7 8 8 8 7 5 6 5 4 5 4 4 4 3 4 4 5 4 5 4 4 4 4 4 4 5 6 6 7 6 6 3 4 4 5 6 6 4 5 6 5 6 6 8 7 6 6 5 5 4 6 7 7 10 9 9 10 10 10 11 12 13 12 13 15
11 10 9 8 7 7 7 8 8 7 7 7 7 7 8 9 9 9 8 7 8 8 9 9 7 5 7 5 4 4 5 4 4 5 4 4 5 4 4 5 4 4 4 4 4 4 4 4 3 4 5 6 1 3 3 4 5 4 5 6 7 6 7 7 8 8 6 5 7 4 5 7 7 9 10 9 9 10 10 11 12 13 13 14 15
11 10 8 7 7 7 8 8 8 7 7 7 8 8 8 8 8 7 9 9 9 9 10 10 9 6 5 6 4 3 4 4 4 5 5 5 4 4 4 4 5 5 5 4 5 5 4 4 3 3 4 5 6 5 2 1 3 4 5 6 7 8 8 8 9 9 8 7 6 5 4 7 8 9 10 10 11 11 10 10 12 13 14 15 16
9 10 9 9 7 7 8 8 8 7 7 7 8 7 9 9 8 8 8 9 9 11 11 11 10 8 8 6 5 4 3 3 4 5 5 5 5 4 5 5 6 5 5 5 5 6 5 4 4 3 2 3 4 5 6 8 7 4 4 5 6 8 9 9 9 9 9 8 6 6 5 7 8 9 11 12 11 12 11 11 11 13 14 15 16
10 10 8 9 8 8 8 7 8 7 7 7 8 9 9 10 10 8 8 8 7 9 12 12 7 7 7 7 6 6 5 4 5 5 5 5 5 6 6 6 7 6 6 5 5 5 5 5 4 3 2 2 2 2 2 0 5 3 1 3 5 7 9 10 10 10 10 8 7 6 6 7 8 10 11 11 12 12 11 11 12 13 14 15 16
11 10 9 9 9 9 8 8 8 8 8 7 8 9 9 9 10 9 9 9 8 9 11 11 6 9 8 7 5 6 5 8 7 7 7 7 7 7 7 6 7 6 6 6 6 5 4 4 5 4 3 2 1 1 1 2 6 7 6 1 2 6 8 9 10 10 10 9 8 6 7 7 8 10 11 12 12 11 11 11 12 13 14 15 16
11 11 10 9 9 8 8 8 8 8 7 8 8 9 10 10 11 10 10 9 9 9 10 10 6 9 3 5 4 5 6 3 8 6 7 7 9 8 7 7 7 6 6 6 6 6 5 6 5 4 4 4 3 2 2 1 3 1 5 7 3 5 6 8 10 10 10 10 8 7 6 7 7 9 10 11 12 11 11 11 12 13 15 16 17
11 11 10 9 9 9 8 8 8 8 8 7 8 8 10 10 10 10 11 9 8 9 10 9 8 8 7 5 3 3 3 7 5 4 7 7 7 9 8 8 7 7 6 6 7 6 6 5 6 5 5 5 3 3 1 2 1 1 3 6 4 4 5 6 8 9 10 9 9 7 7 6 7 8 9 10 11 12 12 12 13 14 15 16 17
11 10 10 10 9 9 9 8 8 8 8 7 8 9 9 10 9 9 9 8 8 8 10 8 5 7 7 4 3 2 1 5 5 2 5 7 7 8 9 9 9 8 7 7 7 6 5 5 5 6 6 4 4 2 3 2 2 1 4 3 3 4 4 4 6 8 9 10 9 9 8 8 7 8 8 9 10 11 12 13 13 14 15 16 18
10 10 10 10 9 9 8 8 7 7 8 8 8 8 8 8 9 9 9 8 8 6 7 7 9 9 8 7 5 4 4 6 7 7 7 4 8 8 8 9 8 8 7 7 8 7 6 5 5 6 5 5 4 4 2 1 1 1 4 4 4 5 5 4 5 7 8 9 9 10 10 9 10 10 9 10 11 12 13 13 14 15 16 17 18
11 11 10 11 10 9 8 8 8 8 8 7 8 8 9 9 9 8 9 7 6 5 6 8 11 9 8 8 7 6 6 6 6 7 7 8 6 10 9 8 8 8 7 7 6 6 7 7 6 5 5 4 4 3 3 2 1 2 5 4 4 5 5 3 4 6 7 8 9 10 11 11 11 10 10 11 12 13 13 14 14 15 16 16 17
11 11 11 11 10 9 9 9 9 8 8 8 8 9 9 9 9 9 9 8 7 6 7 9 7 6 7 7 7 6 6 6 6 7 8 8 9 5 9 10 10 9 8 8 8 7 7 6 6 6 5 4 4 3 3 3 2 2 6 4 3 5 5 3 4 5 7 8 9 10 11 11 11 11 11 11 12 13 13 14 14 15 16 16 17
11 10 11 11 11 10 9 9 8 8 8 8 9 9 9 9 9 10 9 9 8 10 11 10 8 9 9 7 8 8 8 8 7 7 7 7 6 8 4 9 9 9 10 10 8 9 8 6 6 6 4 5 4 3 3 2 2 4 3 1 1 4 4 2 3 4 6 8 9 10 10 11 11 11 11 12 12 13 14 14 14 15 16 16 17
10 10 10 11 11 9 9 9 9 9 9 8 8 8 8 8 8 8 7 9 9 8 9 10 12 9 10 9 8 8 8 8 7 6 6 7 7 7 6 6 7 7 8 9 10 8 8 7 7 6 5 4 4 3 3 3 5 6 5 7 1 2 3 4 2 4 4 6 8 9 9 10 10 10 11 12 12 13 13 14 14 15 15 16 18
11 11 11 13 11 10 9 9 8 9 9 9 8 9 8 8 8 8 7 8 8 9 9 10 11 10 9 9 9 8 8 8 7 7 6 6 7 7 7 3 5 4 6 8 8 8 7 7 6 5 6 5 4 4 3 3 2 6 4 7 3 3 2 3 3 3 4 4 6 7 8 9 10 10 10 11 11 12 13 13 12 12 13 14 16
12 12 11 12 11 10 10 9 9 9 10 10 10 9 8 9 9 8 9 7 8 11 10 11 10 11 9 9 9 8 8 7 7 8 7 7 7 7 7 3 4 5 5 7 8 7 6 6 6 6 5 5 4 4 3 2 3 7 3 5 8 4 1 2 4 4 4 5 5 7 7 8 9 10 10 11 11 12 11 11 11 12 12 13 15
13 12 12 12 11 10 10 10 9 10 10 10 9 8 9 8 7 7 7 7 9 10 10 11 10 11 11 10 8 8 8 8 8 8 8 8 8 7 7 6 6 6 5 6 7 9 6 7 6 6 5 4 4 3 3 3 5 6 4 6 4 9 3 2 3 4 4 5 6 7 7 8 9 10 10 11 11 11 10 11 12 12 13 14 15
11 12 12 11 12 11 11 10 10 10 10 10 10 8 9 8 7 7 8 7 9 11 8 8 9 11 10 10 9 9 8 9 9 8 9 8 7 7 7 7 7 7 7 6 7 7 9 6 6 6 5 5 4 4 2 2 4 8 7 5 3 5 6 2 3 4 4 6 6 6 7 7 8 9 10 10 11 11 11 12 13 13 13 14 16
11 11 12 12 11 11 11 10 11 11 11 11 10 9 8 7 7 8 9 8 8 9 8 8 7 9 9 11 10 8 8 8 9 9 8 9 7 7 7 8 7 7 6 7 8 6 8 8 6 7 6 5 4 4 4 4 7 3 4 3 2 3 7 3 4 4 4 5 6 6 7 8 9 10 10 10 10 11 12 12 13 14 14 15 16
11 10 11 12 11 12 10 10 10 11 11 10 10 10 9 8 9 9 8 8 8 8 8 8 9 8 8 9 9 9 8 8 8 8 9 8 7 8 7 7 7 8 6 6 5 7 6 7 6 5 6 5 4 3 3 4 9 4 4 2 4 1 7 4 6 5 4 4 5 6 7 7 9 10 10 10 11 11 12 13 13 14 15 15 16
12 12 12 12 12 11 11 10 10 11 11 10 10 10 9 9 9 9 9 9 9 9 9 9 9 8 9 10 9 9 8 7 7 6 6 6 7 7 7 7 7 7 7 6 7 5 4 6 5 3 6 6 4 3 2 2 8 4 5 3 4 7 4 8 10 8 5 4 4 6 6 7 8 10 10 10 11 12 13 13 13 14 14 14 14
12 13 12 13 13 12 11 11 11 11 11 11 10 9 8 9 9 8 9 9 9 10 9 9 8 9 9 9 9 8 7 6 6 6 6 6 6 7 7 6 6 6 5 6 7 2 2 3 4 4 5 5 4 4 5 4 8 7 4 4 3 4 9 6 15 10 7 3 4 5 6 6 7 9 9 10 11 11 12 12 12 12 12 12 13
12 12 12 13 13 13 13 12 12 12 12 10 9 9 9 9 8 9 9 9 10 8 8 8 7 8 8 9 8 8 6 7 6 6 6 6 6 6 5 5 6 6 6 6 7 4 4 3 4 4 5 5 6 5 4 3 4 6 7 4 2 4 4 4 5 10 7 3 3 6 6 7 8 8 9 10 10 10 11 11 11 11 12 12 13
12 12 13 12 12 13 13 13 13 13 13 12 11 10 10 10 9 7 8 9 10 9 8 9 9 7 8 9 9 8 7 7 6 6 6 6 6 6 6 6 6 5 5 6 7 5 6 4 4 5 5 6 6 6 4 3 3 3 5 3 4 5 3 3 5 7 8 4 3 5 7 8 8 9 9 9 9 10 11 11 11 11 11 12 13
12 12 13 13 13 13 14 13 13 13 13 12 11 10 10 11 10 9 8 9 10 9 9 9 9 8 9 9 8 7 6 7 6 6 4 5 5 6 6 5 5 5 5 7 6 5 5 6 6 5 5 6 6 4 5 5 3 3 5 3 3 3 3 3 4 2 8 0 3 6 8 8 9 9 9 9 10 10 11 11 11 11 12 12 12
13 12 12 13 13 13 14 13 14 13 13 12 11 11 11 11 10 10 10 10 9 9 9 9 9 9 10 9 8 8 8 8 7 6 5 5 5 4 5 4 5 5 5 5 4 3 5 5 7 6 7 5 6 5 3 3 4 5 3 3 4 4 3 3 4 5 7 3 5 8 8 9 10 11 10 10 10 10 10 11 11 11 11 11 11
13 13 12 13 13 14 12 13 15 14 12 12 12 11 10 10 10 9 10 10 10 10 9 9 9 9 10 10 9 9 9 8 7 7 6 7 6 5 6 6 6 6 5 5 5 5 6 5 5 6 5 5 4 4 4 4 5 6 6 5 3 4 3 3 5 2 4 10 9 10 10 11 12 11 10 10 10 11 10 10 11 11 11 11 11
15 13 14 13 13 14 14 13 14 14 13 12 12 12 11 10 10 9 9 9 9 9 9 9 9 9 9 10 9 10 9 9 8 7 7 8 6 6 6 6 6 6 6 6 6 7 6 6 6 6 5 5 5 4 4 3 3 4 3 3 4 5 4 4 4 3 3 2 3 4 9 11 11 11 11 10 11 11 11 11 11 11 11 10 10
16 15 13 14 12 13 14 13 14 14 14 13 12 12 12 11 11 10 9 9 9 8 9 9 9 9 9 9 9 10 10 9 8 8 8 8 6 6 6 6 6 7 6 6 7 7 6 6 6 6 6 5 4 4 5 3 3 4 3 4 4 2 2 3 4 4 3 3 4 10 8 7 10 10 8 11 11 11 12 12 11 10 10 8 10
17 17 16 14 12 12 13 13 13 12 13 12 12 12 12 11 10 10 10 9 9 9 8 9 9 9 9 9 9 10 9 9 9 8 8 8 7 7 6 6 6 7 7 7 7 7 6 6 6 6 5 5 5 3 2 3 4 4 4 3 4 4 4 3 5 5 3 4 5 4 8 12 12 14 17 18 14 13 13 14 12 10 6 8 11
14 16 16 14 13 13 12 12 12 12 12 11 11 11 11 12 11 11 11 10 10 9 9 9 9 9 9 9 9 9 9 7 8 7 5 4 7 7 6 6 7 7 6 6 7 6 6 6 6 5 5 5 5 5 5 4 5 3 2 2 4 5 4 5 4 2 3 5 5 5 6 5 6 7 7 7 1 9 8 12 1 7 9 10 11
15 15 16 14 13 13 13 12 12 11 10 9 10 14 12 11 11 10 10 10 10 10 10 10 10 10 10 8 8 7 8 8 8 9 9 6 3 3 7 7 7 7 6 6 6 6 6 7 6 6 5 5 5 5 5 4 2 1 3 4 5 4 4 5 6 4 2 4 5 6 7 5 5 7 7 6 5 5 7 6 8 7 9 11 11
15 16 16 15 13 13 14 13 13 12 10 8 14 14 13 12 11 10 10 10 11 10 10 10 10 10 10 9 8 9 9 8 8 10 9 8 5 4 5 5 4 2 7 7 6 6 7 6 6 6 5 5 5 5 5 4 4 4 3 3 4 4 5 5 5 2 2 3 6 7 7 5 5 7 7 7 6 7 8 7 5 8 10 10 11
14 15 16 15 13 13 12 13 13 11 11 13 18 16 14 14 11 10 10 10 10 10 10 11 10 10 10 10 9 8 9 11 10 9 8 8 6 5 6 3 0 4 6 2 4 7 6 6 6 6 5 5 5 5 4 4 4 4 4 4 4 5 5 5 5 5 3 3 6 7 7 6 5 6 7 6 6 7 9 9 8 8 10 11 11
14 15 17 14 13 12 12 14 13 11 8 15 18 17 15 15 13 10 10 10 10 11 11 11 11 11 10 10 9 8 9 12 11 11 10 8 5 5 6 4 2 1 5 5 6 5 3 6 5 5 5 4 5 5 4 4 2 3 3 5 4 4 5 6 6 5 4 4 6 6 7 7 5 5 7 6 6 7 9 3 2 8 10 11 12
15 15 16 14 13 13 13 12 11 10 9 15 18 19 17 17 14 11 9 11 10 11 11 11 10 11 11 11 10 10 10 12 11 12 11 11 9 7 6 6 6 5 2 0 4 5 5 3 4 5 5 4 4 3 4 3 4 4 4 5 4 5 6 6 7 8 8 5 6 6 8 7 6 7 8 7 7 8 9 9 5 7 9 11 13
15 15 15 14 12 12 13 11 10 10 8 18 18 19 17 16 15 12 9 9 9 10 11 11 11 11 11 11 11 11 11 12 11 13 12 12 11 9 9 8 7 8 7 7 7 6 5 4 3 4 2 4 4 2 4 4 4 4 3 5 5 6 7 8 9 10 9 8 6 5 8 7 7 8 7 7 7 9 9 11 3 4 8 11 13
13 13 13 12 12 12 11 11 9 11 8 20 19 19 18 17 17 11 10 10 10 10 11 11 11 10 11 11 11 11 11 13 12 14 13 11 11 10 9 9 8 7 8 4 4 3 1 2 2 2 3 6 8 4 4 0 4 4 4 5 6 7 8 8 7 5 6 2 5 5 7 8 8 8 8 8 8 9 9 8 7 7 8 11 12
14 14 14 12 11 11 11 11 11 11 9 17 20 21 19 19 15 12 10 10 10 10 10 10 11 10 11 12 11 11 11 11 13 14 11 9 11 10 9 9 8 8 8 6 5 3 1 5 6 7 7 7 7 7 6 8 5 5 4 5 6 7 7 8 7 6 5 4 4 4 5 9 8 9 9 8 9 10 8 8 9 11 9 10 10
15 15 13 11 10 11 13 13 14 14 10 15 21 20 20 20 17 14 11 11 11 10 10 10 10 10 11 12 12 11 11 10 17 14 13 10 9 10 10 10 9 9 8 7 7 5 5 3 3 3 4 3 2 1 2 2 2 3 6 7 6 7 8 7 8 6 6 7 6 1 5 8 9 8 10 9 9 7 7 8 10 10 10 8 10
15 14 13 13 11 10 13 15 16 16 11 15 21 21 20 21 16 12 11 11 11 11 10 10 10 9 10 9 10 10 11 11 18 15 14 13 10 9 10 10 9 10 9 9 9 10 8 7 6 5 5 6 5 6 7 9 7 6 7 8 8 8 8 8 7 7 7 5 5 2 7 8 9 8 9 10 10 8 7 9 10 10 9 10 11
Wind_Direction
167 169 167 175 170 177 176 174 177 180 168 192 179 175 175 177 188 194 189 170 166 150 146 143 157 148 150 161 149 112 111 114 121 99 91 100 98 99 96 97 105 110 113 108 103 102 95 96 105 105 98 95 95 93 89 85 82 76 65 71 73 65 57 56 50 40 41 35 31 35 35 35 37 28 19 28 23 11 14 18 16 12 8 9 7
166 170 169 166 168 170 176 173 175 168 176 178 182 177 174 182 191 199 173 174 162 149 151 153 157 158 168 151 135 133 123 122 117 105 96 96 104 103 100 99 94 92 90 95 95 96 104 111 105 104 104 101 100 98 91 83 81 75 66 61 74 73 64 57 49 41 40 35 25 25 21 32 37 26 19 26 20 15 16 14 10 10 9 7 5
167 169 166 164 167 168 175 170 175 173 181 178 171 185 187 187 195 186 177 183 161 147 171 154 161 171 161 140 141 132 120 119 118 100 111 111 102 107 105 102 102 104 109 107 108 104 101 103 106 103 105 106 103 98 91 84 82 77 68 63 59 62 69 64 53 44 39 35 28 19 10 9 31 30 19 22 17 16 9 8 8 9 9 8 3
167 166 168 167 167 172 170 177 175 174 181 174 180 188 187 192 185 189 188 174 152 168 162 162 175 163 151 151 137 135 128 118 105 102 99 111 122 122 119 115 113 112 110 108 103 101 107 107 106 110 110 109 104 97 90 87 81 78 71 67 61 54 50 59 58 47 40 33 27 20 12 4 23 32 16 18 16 9 6 8 0 7 13 5 358
166 169 170 170 165 168 172 176 176 174 176 178 185 182 180 179 181 177 179 171 167 166 168 171 174 155 158 141 140 126 117 115 103 108 110 110 114 125 129 128 121 109 101 101 104 107 104 110 114 116 111 106 104 103 97 92 91 85 76 65 59 54 51 42 41 42 45 35 22 16 14 8 9 26 12 12 12 3 360 9 354 11 9 3 358
165 170 179 169 167 174 169 174 169 167 178 182 182 185 186 185 175 182 172 176 171 163 171 172 159 156 148 138 123 118 120 114 110 108 115 110 109 126 136 140 145 132 120 102 101 115 117 112 110 109 112 109 105 104 105 102 96 88 82 72 59 43 34 36 28 10 10 51 17 12 12 11 1 6 14 11 3 353 8 359 21 17 13 6 360
169 174 184 178 174 174 174 174 170 178 180 187 189 184 190 187 179 188 169 182 176 170 177 166 163 156 140 137 131 127 117 109 121 118 111 112 129 123 133 144 130 138 141 133 119 103 102 100 97 100 106 104 97 97 92 93 92 88 75 79 67 46 27 8 6 7 0 34 22 10 6 6 360 352 18 8 0 350 14 6 18 15 11 8 358
173 177 185 188 181 178 174 171 177 183 187 181 196 193 184 194 184 188 172 176 185 167 174 162 161 154 144 135 124 130 125 129 130 126 122 133 122 136 144 140 154 144 150 139 134 117 113 117 114 108 97 103 108 106 103 92 82 71 63 54 45 32 11 2 350 354 355 357 33 3 2 1 357 351 15 6 357 359 5 5 12 9 5 6 1
178 178 190 192 188 177 172 168 180 189 191 183 198 198 183 187 183 189 175 174 189 168 130 106 147 156 139 134 135 138 135 130 131 117 111 114 137 142 143 135 117 116 176 144 139 138 131 125 128 116 100 86 84 80 81 81 81 65 47 32 25 11 358 354 350 344 353 345 28 5 358 357 358 351 5 4 348 5 360 359 9 2 2 4 356
183 180 195 196 189 183 166 168 181 194 195 190 198 197 186 183 179 181 187 177 182 110 115 129 140 159 132 123 130 139 123 129 118 134 139 140 139 142 141 138 154 171 148 166 145 141 141 147 141 127 106 91 80 82 63 53 39 29 23 15 12 3 352 346 344 345 348 342 13 6 357 353 356 351 355 1 347 6 354 355 348 352 3 349 346
188 182 196 194 189 183 172 177 188 195 194 191 195 195 185 178 182 173 175 200 129 139 152 163 170 166 133 123 127 140 138 127 145 143 135 145 136 146 150 152 154 149 151 157 159 152 154 161 171 160 128 113 89 61 54 37 13 14 6 360 1 360 348 342 341 345 345 342 353 21 354 350 357 351 346 359 347 358 349 349 338 350 353 343 342
190 189 192 190 186 180 174 181 188 190 199 196 193 187 181 180 180 176 170 158 139 159 168 157 152 137 118 125 134 153 142 145 151 146 142 149 152 159 151 150 156 145 164 158 157 159 170 186 194 154 143 135 40 51 38 22 3 17 7 358 356 353 344 342 341 341 342 348 338 13 352 348 358 349 343 351 344 343 344 342 336 344 345 341 340
192 185 193 185 186 181 179 183 186 192 198 203 197 186 180 181 174 179 170 157 163 173 168 159 139 135 125 133 138 128 122 160 166 156 166 155 155 169 152 161 156 160 168 163 160 165 169 181 180 167 162 144 164 155 140 172 59 22 2 1 354 349 346 340 338 337 338 341 338 353 357 349 350 350 344 347 346 344 337 337 332 338 342 339 337
192 189 192 187 188 185 189 183 188 192 197 202 199 187 182 181 175 173 178 166 165 173 167 164 177 172 165 161 152 156 152 187 191 178 171 170 163 175 167 185 167 173 161 173 174 177 176 175 186 170 173 198 165 166 182 185 150 65 358 356 351 343 341 339 334 335 334 336 337 343 360 352 347 351 345 348 347 340 337 336 334 337 340 338 337
192 192 194 195 191 189 192 190 191 191 194 197 189 183 187 186 182 185 177 171 161 168 169 190 179 175 170 159 170 176 167 198 217 202 198 175 184 189 179 195 177 177 173 184 188 189 181 184 167 177 185 229 194 193 160 74 68 90 1 353 340 333 336 335 335 332 333 334 336 350 354 355 348 354 346 353 348 342 341 337 335 340 338 337 339
194 191 200 200 199 199 193 192 193 197 193 188 186 188 189 192 191 191 185 176 179 176 182 201 205 169 178 208 169 209 197 195 190 196 200 192 203 202 192 197 181 183 174 198 188 199 191 186 182 172 201 213 266 217 250 50 123 198 176 94 316 332 331 332 332 330 331 334 335 354 349 358 353 355 353 357 350 345 343 340 339 338 337 339 339
194 194 200 200 201 202 197 193 196 197 195 192 191 193 194 196 195 192 191 188 175 171 183 197 214 189 203 189 143 217 258 117 169 179 194 203 206 215 192 214 187 189 199 199 196 192 195 196 192 170 195 206 213 234 270 172 193 276 167 145 30 333 338 334 328 329 330 335 335 352 349 359 358 356 358 360 354 348 345 342 339 336 338 338 338
201 196 199 198 201 204 200 195 197 197 196 197 194 194 197 199 193 195 197 200 190 168 182 189 209 213 257 248 294 310 304 133 175 185 184 219 213 211 202 208 211 190 213 203 205 192 191 209 177 198 197 210 203 233 194 197 263 230 342 46 359 332 334 337 328 328 330 334 337 349 345 352 355 356 1 1 356 350 346 341 337 335 336 337 338
206 198 201 200 202 204 200 202 198 199 195 197 199 197 198 199 191 199 200 194 191 198 189 186 197 228 224 240 253 249 326 149 224 192 182 195 225 208 211 205 207 211 205 214 200 196 192 223 175 208 178 200 208 209 219 171 130 238 85 20 321 318 326 342 341 335 331 331 338 343 338 346 340 342 354 358 351 345 342 337 335 334 335 337 337
204 204 205 202 203 203 201 205 202 199 198 198 200 196 202 197 195 199 201 195 192 192 177 174 199 210 212 218 223 228 232 226 263 274 281 197 194 212 211 211 208 210 220 213 204 192 192 226 208 198 183 200 192 201 218 218 278 288 130 59 335 322 323 349 356 347 340 332 334 337 336 340 334 331 340 351 344 338 337 335 334 336 337 336 337
206 205 207 205 201 202 200 202 203 201 200 200 199 198 202 193 187 194 192 183 176 136 184 209 211 219 188 213 222 224 222 226 237 247 256 268 242 177 201 192 214 208 214 221 210 195 198 202 234 206 177 184 205 194 220 207 179 259 98 58 343 323 320 349 2 343 340 335 332 329 332 333 333 332 337 345 340 336 335 335 335 337 337 337 337
208 206 208 208 203 199 202 201 202 201 202 203 194 196 196 193 189 191 192 166 121 166 221 231 214 213 212 206 207 215 230 222 220 231 245 256 284 211 187 191 199 205 200 205 209 205 206 203 210 218 192 189 198 193 189 214 174 280 73 40 332 325 321 345 353 342 337 335 333 327 327 330 334 335 340 341 335 335 334 335 337 338 338 337 336
208 204 207 208 204 200 202 201 199 199 203 201 196 195 194 196 198 199 188 172 173 188 213 223 218 221 224 215 211 221 226 229 226 231 241 247 236 268 246 196 213 196 195 198 206 206 212 199 210 217 186 203 196 199 191 157 141 79 64 176 300 316 325 333 334 330 333 334 337 331 327 332 336 338 339 335 332 331 333 334 338 338 336 335 335
206 207 204 209 206 201 201 203 198 197 198 200 196 196 193 192 195 193 190 188 191 192 212 226 228 230 226 226 227 235 233 239 233 237 232 240 248 257 256 222 212 199 180 187 204 209 206 202 208 204 201 203 201 178 142 230 122 114 246 158 243 297 328 321 334 320 312 330 332 330 336 338 339 337 335 331 329 329 330 333 335 333 332 331 331
205 206 205 208 207 204 202 202 197 195 196 198 195 196 186 188 193 194 197 194 199 205 213 215 226 230 231 233 236 232 237 235 245 247 237 243 258 259 258 233 210 209 153 177 196 209 203 205 209 200 197 198 178 199 178 228 125 115 298 162 162 130 308 327 321 317 317 320 318 325 330 336 336 338 333 330 328 328 328 330 325 321 323 322 323
203 206 205 206 205 205 206 202 198 193 196 198 197 195 181 193 193 199 203 205 214 220 225 225 228 231 235 240 234 237 241 245 240 235 235 238 244 247 252 211 227 222 169 194 200 192 194 214 204 200 194 187 183 163 229 213 143 131 245 289 153 130 189 317 323 318 311 314 304 311 322 326 325 326 325 323 322 320 318 315 319 323 319 319 321
204 204 202 200 205 205 203 203 198 196 193 195 190 182 189 196 201 207 210 214 220 227 228 228 232 233 233 234 235 234 237 234 240 236 232 235 238 241 239 214 207 230 202 213 196 204 200 199 193 194 197 169 169 198 189 195 96 117 233 248 193 144 151 228 303 302 303 303 304 308 314 315 315 312 313 313 312 312 314 319 320 319 317 319 321
196 196 197 197 202 204 201 202 198 194 194 192 184 189 187 193 201 205 217 215 220 224 231 234 237 235 234 233 236 237 230 233 233 230 242 242 237 240 234 228 225 211 206 222 213 209 206 184 189 202 183 177 195 173 115 253 170 158 225 249 276 156 151 183 254 288 292 298 303 311 312 309 307 307 309 310 313 317 317 318 318 315 317 319 320
199 194 190 196 204 201 199 196 196 196 194 190 187 187 181 187 204 214 218 214 223 229 230 230 219 229 229 228 231 232 233 230 230 234 231 239 241 238 231 226 229 242 207 218 213 225 181 194 195 183 195 172 184 176 190 228 114 204 244 266 235 253 126 174 236 263 278 289 302 310 310 313 312 310 311 314 314 315 317 314 314 315 318 319 318
201 198 188 192 202 199 197 194 193 194 193 192 192 188 183 195 209 214 218 218 222 224 225 222 226 222 226 225 223 227 229 224 228 231 231 234 237 237 232 229 230 237 242 238 223 200 188 192 221 168 180 179 177 202 194 221 105 234 256 264 262 175 115 217 231 231 252 273 294 301 303 303 305 308 312 315 313 313 313 313 314 318 317 315 318
198 194 186 194 196 194 196 192 191 191 192 194 192 192 187 203 206 216 215 210 216 220 218 220 221 219 218 220 219 224 220 220 226 211 221 223 227 231 228 231 229 236 253 252 263 156 200 175 201 170 159 177 190 169 217 247 147 219 245 228 242 93 212 208 208 205 221 244 285 297 305 304 299 300 305 306 308 311 311 313 317 315 313 312 313
197 189 186 196 197 193 194 193 191 191 190 189 186 185 187 204 203 210 208 206 210 215 216 211 213 214 214 214 212 214 202 208 204 207 208 214 219 223 221 220 230 239 241 256 257 144 170 161 172 162 147 161 185 198 202 226 133 218 276 245 157 181 237 222 183 185 173 214 278 292 295 295 289 293 298 300 306 308 311 313 312 307 307 307 309
191 189 192 198 197 200 197 195 193 192 191 183 185 185 187 193 198 204 201 200 207 207 207 195 197 206 209 213 207 206 194 207 200 193 205 201 203 224 227 220 230 218 227 236 242 158 122 116 146 165 144 176 211 217 230 207 203 193 210 216 243 270 271 287 180 157 154 167 270 284 286 286 289 290 298 303 303 303 305 305 302 303 304 306 309
180 184 192 196 199 199 200 197 198 197 196 187 182 187 190 191 193 190 195 203 206 207 200 200 197 199 203 212 205 192 190 202 196 203 199 200 203 213 212 224 221 221 212 231 230 193 160 152 173 175 168 210 238 166 233 229 238 283 277 262 244 233 284 301 289 145 142 135 268 281 281 280 284 285 286 293 295 297 297 297 298 301 305 306 307
181 187 193 195 196 197 198 198 199 201 199 191 186 187 192 191 190 188 197 204 205 205 199 204 198 192 197 203 198 179 177 191 191 211 197 207 213 214 210 204 219 205 198 215 226 191 169 176 175 188 198 192 233 192 190 197 227 266 270 242 266 278 244 256 279 290 107 148 239 269 273 274 278 280 282 283 288 288 291 296 299 302 303 304 302
180 185 190 190 190 192 195 194 200 198 196 194 185 192 193 193 194 194 197 202 205 206 205 203 197 191 195 194 191 179 178 189 193 197 195 201 205 204 187 185 194 185 188 190 201 174 189 182 185 207 191 185 208 223 187 234 229 237 253 302 268 247 268 259 244 264 129 139 242 261 267 273 272 274 270 272 280 287 290 293 295 296 297 297 301
186 180 185 189 189 191 192 192 200 199 192 187 186 189 190 193 197 197 198 201 203 205 204 201 195 192 192 193 187 182 185 193 190 197 189 184 194 183 185 184 184 174 170 179 167 196 198 200 184 209 170 193 203 200 205 230 196 213 211 216 258 296 288 298 291 264 187 201 228 240 252 251 258 259 260 271 276 280 282 283 287 289 290 294 303
194 185 184 185 190 193 193 193 199 198 194 190 187 187 188 188 195 196 197 200 200 201 198 198 191 193 191 193 187 187 187 194 189 189 176 180 184 184 185 184 167 156 158 157 188 193 198 201 182 180 185 196 187 210 208 222 264 272 264 238 224 221 219 266 282 261 295 291 284 225 221 238 227 227 248 255 255 258 268 273 277 280 280 289 303
197 198 187 185 187 196 195 194 198 201 200 195 190 187 188 189 192 191 194 194 195 199 195 194 191 191 191 193 187 189 191 191 186 178 174 178 181 180 171 164 155 153 157 184 189 187 202 193 182 191 189 188 209 203 201 210 233 257 263 258 261 240 259 282 288 289 269 262 225 213 248 286 293 286 277 258 252 252 260 264 261 261 271 288 312
196 198 195 186 184 193 195 194 198 194 200 192 190 187 188 187 187 189 190 191 193 190 192 193 189 189 192 191 188 190 191 188 183 179 178 178 175 172 165 162 156 166 180 181 187 186 190 193 194 186 189 181 187 228 145 209 235 223 230 285 288 290 288 276 270 272 277 279 299 300 218 220 235 236 238 245 244 257 245 250 243 241 272 319 318
195 199 196 187 180 188 189 188 188 188 191 191 190 186 186 185 184 187 188 190 191 188 187 189 185 188 190 189 189 189 189 173 170 176 159 156 174 166 158 164 172 184 187 183 184 189 188 195 194 189 188 189 199 196 206 212 221 257 123 243 277 274 281 285 274 252 279 294 302 295 294 303 301 311 313 322 148 225 238 224 5 356 340 321 316
195 199 195 191 180 181 183 181 187 185 189 192 177 177 183 180 182 185 186 189 190 188 187 184 185 188 188 185 186 163 126 120 121 109 108 109 55 148 171 178 184 186 187 188 191 196 195 196 196 189 195 202 203 200 213 213 221 223 247 241 260 278 281 277 272 233 233 309 312 300 304 303 311 302 304 310 326 308 329 329 7 325 314 308 306
195 198 197 191 181 181 183 183 184 185 187 180 150 167 167 171 180 184 184 186 187 188 187 185 183 184 185 183 174 141 145 141 137 134 132 126 99 72 68 35 11 194 189 189 201 201 200 203 192 194 206 206 203 199 212 205 198 229 242 263 283 281 278 293 298 306 167 329 310 307 300 307 299 302 316 311 323 322 330 332 344 295 292 299 303
196 197 197 190 180 179 182 185 187 187 187 146 159 164 165 166 185 185 185 185 186 187 188 186 185 183 182 182 179 170 185 184 170 154 138 111 106 112 113 110 328 11 11 339 210 198 207 209 193 201 207 210 200 198 203 203 207 214 236 257 266 282 287 282 288 285 355 340 309 303 300 299 284 296 301 308 311 326 321 300 272 272 291 297 300
195 196 198 188 174 175 179 186 187 183 191 149 162 164 166 172 182 197 187 189 186 187 188 189 188 184 182 180 177 174 176 165 174 175 166 145 112 110 110 137 116 336 340 340 352 348 230 211 211 203 215 208 206 199 200 203 217 257 248 250 255 265 281 281 277 298 302 325 295 289 303 304 292 294 302 306 321 327 310 274 272 298 295 295 296
196 198 197 185 173 178 183 185 182 182 185 154 163 168 171 175 178 198 196 187 190 188 188 189 188 187 183 180 177 176 170 173 185 179 172 168 168 164 176 195 198 169 170 356 301 295 313 278 220 220 200 223 223 188 167 180 207 233 245 261 281 282 283 293 311 296 285 263 269 304 294 298 314 303 295 309 322 317 312 320 289 263 280 294 295
197 201 198 187 180 181 181 182 183 187 172 158 167 172 172 173 177 200 200 187 190 189 189 190 190 188 184 184 182 177 174 177 186 180 172 173 177 181 189 194 196 192 199 205 208 214 217 234 252 233 209 199 217 169 160 180 213 241 277 299 307 301 296 289 274 260 260 238 223 265 296 304 307 303 303 311 315 311 324 315 156 287 280 284 287
201 201 201 192 176 177 177 176 179 191 158 165 168 172 171 173 174 193 198 188 193 188 189 190 190 190 187 187 185 183 177 182 162 159 174 175 180 185 191 191 193 190 198 158 143 69 14 240 253 13 38 45 45 40 45 136 202 217 242 250 254 256 264 270 278 282 279 273 184 273 297 307 309 300 312 313 310 310 310 302 309 315 298 286 285
198 199 201 194 183 178 173 177 181 189 161 174 170 172 170 169 171 194 193 190 190 191 188 188 191 190 191 189 191 186 178 178 146 166 171 190 182 190 190 190 191 191 194 150 120 118 51 38 61 71 58 45 50 50 50 32 25 356 295 278 262 260 266 272 280 289 282 294 267 250 302 304 314 316 311 312 316 306 306 317 329 321 304 289 284
202 200 198 198 186 179 180 185 186 190 170 172 174 171 167 168 178 189 190 190 186 187 186 187 192 191 192 192 190 184 180 172 152 167 163 184 194 192 193 190 190 195 195 175 170 167 117 109 82 91 107 98 83 95 97 116 144 251 247 258 275 286 280 280 284 290 301 289 275 91 300 305 317 315 313 312 303 301 314 322 324 323 315 309 334
202 199 198 199 189 175 185 192 185 187 172 170 175 169 168 172 181 194 189 189 182 185 185 184 191 192 185 177 188 196 192 146 156 164 171 186 205 198 196 196 197 199 199 185 182 181 185 199 203 195 198 177 202 218 204 187 182 205 236 252 267 268 273 278 286 292 287 287 89 99 306 313 317 314 313 317 317 319 322 327 323 327 328 337 333